Regional Weather Roundup
Issued by NWS

Home | Current Version | Previous Version | Text Only | Print | Product List | Glossary Off
Versions: 1 2 3 4 5 6 7 8 9 10 11 12 13 14 15 16 17 18 19 20 21 22 23 24 25 26 27

000
ASUS45 KCYS 250610
RWRWY

WYOMING REGIONAL WEATHER ROUNDUP
NATIONAL WEATHER SERVICE CHEYENNE WY
1200 AM MDT MON JUL 25 2016

NOTE:  "FAIR" INDICATES FEW OR NO CLOUDS BELOW 12,000 FEET
WITH NO SIGNIFICANT WEATHER AND/OR OBSTRUCTIONS TO VISIBILITY.

WYZ001-250700-
YELLOWSTONE NATIONAL PARK

CITY           SKY/WX    TMP DP  RH WIND       PRES   REMARKS
LK YELLOWSTONE   N/A     46  32  58 NW3       30.38R
6HR MIN TEMP:  46; 6HR MAX TEMP:  74;

W YELLOWSTONE  NOT AVBL

$$
WYZ002>013-054>058-071-098>099-250700-
NORTHERN WYOMING

CITY           SKY/WX    TMP DP  RH WIND       PRES   REMARKS
JACKSON        FAIR      55  36  47 CALM      30.26R
CODY           FAIR      68  36  30 SW3       30.14S
GREYBULL       FAIR      71  35  26 CALM      30.02S
6HR MIN TEMP:  71; 6HR MAX TEMP:  91;

WORLAND        FAIR      70  29  21 CALM      30.05R
6HR MIN TEMP:  68; 6HR MAX TEMP:  91;

SHERIDAN       FAIR      63  46  54 W5        30.06F
6HR MIN TEMP:  62; 6HR MAX TEMP:  92;

BUFFALO        FAIR      68  41  37 S5        30.15S
6HR MIN TEMP:  65; 6HR MAX TEMP:  88;

GILLETTE       FAIR      73  51  46 S15       30.11S
6HR MIN TEMP:  64; 6HR MAX TEMP:  87;

HULETT         FAIR      73  46  38 S10       30.12S
NEWCASTLE      FAIR      72  45  37 SE16G22   30.17R

$$
WYZ014>020-022>026-101>103-250700-
CENTRAL WYOMING

CITY           SKY/WX    TMP DP  RH WIND       PRES   REMARKS
BIG PINEY      FAIR      53  26  35 N3        30.30R
6HR MIN TEMP:  48; 6HR MAX TEMP:  84;

PINEDALE       FAIR      52  34  50 NW3       30.31R
DUBOIS         FAIR      57  23  26 W5        30.30R
LANDER         FAIR      60  37  42 VRB3      30.17S
6HR MIN TEMP:  60; 6HR MAX TEMP:  89;

RIVERTON       FAIR      69  29  22 W6        30.15R
6HR MIN TEMP:  68; 6HR MAX TEMP:  88;

CASPER         FAIR      56  35  45 CALM      30.16R
6HR MIN TEMP:  56; 6HR MAX TEMP:  88;

DOUGLAS          N/A    N/A N/A N/A MISG      30.17S

$$
WYZ021-027>030-104>119-250700-
SOUTHERN WYOMING

CITY           SKY/WX    TMP DP  RH WIND       PRES   REMARKS
EVANSTON       FAIR      66  19  16 SE7       30.29F
6HR MIN TEMP:  65; 6HR MAX TEMP:  85;

KEMMERER         N/A     59  23  25 CALM      30.31R
FORT BRIDGER   FAIR      67  17  14 W7        30.31S
ROCK SPRINGS   FAIR      69  11  10 W3        30.25S
6HR MIN TEMP:  67; 6HR MAX TEMP:  87;

DIXON          FAIR      62  33  34 E5        30.28R
RAWLINS        FAIR      64  39  39 VRB6      30.26R
6HR MIN TEMP:  61; 6HR MAX TEMP:  87;

SARATOGA       FAIR      52  32  46 SE12      30.29R
LARAMIE        FAIR      57  53  86 SE26G38   30.33R
6HR MIN TEMP:  57; 6HR MAX TEMP:  83;

CHEYENNE       FAIR      61  54  77 S21G28    30.32S
6HR MIN TEMP:  60; 6HR MAX TEMP:  78;

TORRINGTON     FAIR      63  54  72 SE8       30.19R
6HR MIN TEMP:  63; 6HR MAX TEMP:  82;

PINE BLUFFS    FAIR      55  54  94 S3        30.28S

$$




USA.gov is the U.S. government's official web portal to all federal, state and local government web resources and services.